[[{"header":{"parameterUnit":"m.s-1","parameterCategory":1,"la1":30.2991,"la2":30.254,"lo1":-89.0895,"lo2":-89.0444,"dy":0.0017,"dx":0.0017,"nx":28,"ny":28,"refTime":"2025-06-17T03:00:00:Z","depth":0,"parameterNumber":2,"parameterNumberName":"U-component_of_WINDS"},"data":[0,0,0,0,0,0,0,0,0,0,0,0,0,0,0,0,0,0,0,0,0,0,0,0,0,0,0,0,0,0,0,0,0,0,0,0,0,0,0,0,0,0,0,0,0,0,0,0,0,0,0,0,0,0,0,0,0,0,2.1181,2.118,0,2.1108,2.1108,2.1107,2.0993,2.0991,2.0989,2.0987,2.0915,2.0915,2.0915,0,0,0,0,0,0,0,0,0,0,0,0,0,2.122,2.122,2.1181,2.118,2.1179,2.1109,2.1108,2.1107,2.0994,2.0991,2.0989,2.0986,2.0915,2.0915,2.0915,0,0,0,0,0,0,0,0,0,0,0,0,0,2.1181,2.122,2.1181,2.1114,2.1107,2.1109,2.1108,2.1106,2.0994,2.0991,2.0988,2.0985,2.0915,2.0915,2.0915,2.0976,0,0,2.0914,2.0914,0,0,0,0,0,0,0,0,2.1183,2.118,2.1125,2.1119,2.1111,2.1057,2.1095,2.1063,2.0995,2.1037,2.0987,2.0984,2.0965,2.096,2.0953,2.0972,2.0969,2.0914,2.0914,2.0914,2.0914,0,0,0,0,0,0,0,2.1186,2.1182,2.1152,2.1124,2.1116,2.1087,2.1078,2.1088,2.1019,2.1033,2.1025,2.1018,2.096,2.0954,2.0951,2.0968,2.0914,2.0914,2.0914,2.0914,2.1029,2.1032,0,0,0,0,0,0,2.1199,2.1185,2.1154,2.115,2.114,2.1089,2.1079,2.1077,2.1019,2.1007,2.1021,2.1013,2.0955,2.0951,2.0948,2.1012,2.0914,2.0914,2.0914,2.1026,2.103,2.1033,0,0,0,0,0,0,2.12,2.1197,2.1157,2.1165,2.1158,2.1092,2.1091,2.1078,2.1071,2.1009,2.0996,2.1027,2.0953,2.0948,2.0969,2.1008,2.0914,2.0914,2.1023,2.1027,2.1032,2.1144,0,0,0,0,0,0,2.1202,2.1198,2.1221,2.1167,2.1158,2.118,2.1093,2.1078,2.1071,2.106,2.1011,2.1,2.095,2.0969,2.0969,2.1006,2.0914,2.1019,2.1025,2.103,2.1136,2.1152,2.1165,0,0,0,0,0,2.1203,2.1257,2.1223,2.122,2.1185,2.1182,2.1177,2.1118,2.1075,2.1096,2.1056,2.1002,2.1005,2.0972,2.0971,2.1009,2.1016,2.1023,2.103,2.113,2.1149,2.1165,0,0,0,0,0,0,2.1319,2.1248,2.121,2.1247,2.1222,2.1163,2.1189,2.1141,2.1127,2.1118,2.1045,2.1035,2.1064,2.1039,2.1004,2.1063,2.1002,2.1009,2.1078,2.1096,2.111,2.1114,2.0914,0,0,0,0,0,2.1349,2.1352,2.1291,2.1329,2.1318,2.1257,2.1253,2.1209,2.118,2.1169,2.113,2.1104,2.1098,2.1096,2.1088,2.1133,2.1119,2.1158,2.1173,2.1185,2.1191,2.1209,2.1225,2.1056,2.1056,2.1056,0,0,2.141,2.1372,2.1379,2.1351,2.1326,2.1331,2.1248,2.1257,2.1259,2.117,2.1186,2.1157,2.1122,2.1155,2.1167,2.1134,2.1234,2.1193,2.1204,2.1203,2.1218,2.1234,2.1248,2.1061,2.106,2.1059,0,0,2.1523,2.1497,2.1524,2.15,2.1462,2.142,2.1427,2.1376,2.1352,2.1367,2.1299,2.1301,2.1294,2.1271,2.1259,2.1361,2.1309,2.1361,2.1435,2.1454,2.1467,2.1478,2.1512,2.1525,2.1368,2.1368,2.1368,0,2.1604,2.1608,2.1544,2.1556,2.1545,2.1464,2.149,2.147,2.1433,2.1426,2.1391,2.1377,2.1349,2.1373,2.1397,2.1391,2.1395,2.1365,2.147,2.1481,2.1491,2.1522,2.1535,2.1374,2.1373,2.1373,2.1372,0,2.1708,2.1712,2.1739,2.1702,2.1694,2.1714,2.1652,2.1652,2.1609,2.157,2.1585,2.1548,2.1529,2.1532,2.1491,2.1549,2.1529,2.1484,2.142,2.1514,2.1542,2.1553,2.1383,2.1381,2.1379,2.1377,0,0,2.1892,2.1819,2.1829,2.181,2.1762,2.1763,2.1779,2.1759,2.1759,2.1736,2.1745,2.174,2.1695,2.1681,2.1637,2.1654,2.1733,2.1604,2.1602,2.1627,2.1791,2.1824,2.1839,2.1699,2.1701,2.1703,2.1793,0,2.1993,2.2014,2.1956,2.1991,2.1992,2.1914,2.1926,2.1898,2.1863,2.1858,2.1818,2.1814,2.1758,2.1749,2.1762,2.1721,2.1764,2.1714,2.1705,2.1705,2.1713,2.1854,2.189,2.1976,2.1804,2.1806,2.1807,0,2.2114,2.2095,2.213,2.2077,2.2075,2.2087,2.2063,2.206,2.2026,2.1998,2.1982,2.1929,2.1939,2.1879,2.189,2.1857,2.185,2.1829,2.1831,2.1826,2.176,2.185,2.2003,2.2015,2.1824,2.1823,2.1821,0,2.224,2.2223,2.2241,2.2228,2.2168,2.2177,2.2153,2.2115,2.2106,2.2086,2.2078,2.206,2.2049,2.2036,2.1979,2.1941,2.1995,2.1932,2.1971,2.1972,2.1984,2.1984,2.2135,2.1985,2.1985,2.1985,2.1984,0,2.2357,2.2381,2.2296,2.2307,2.233,2.2263,2.2288,2.2256,2.2223,2.2225,2.2158,2.2161,2.2087,2.2082,2.2038,2.2052,2.2049,2.2025,2.2013,2.203,2.2032,2.2022,2.2014,2.1988,2.1987,2.1987,2.1986,0,2.2501,2.2446,2.2459,2.2401,2.2386,2.2406,2.2355,2.2362,2.2322,2.2325,2.2322,2.2259,2.2249,2.2192,2.217,2.214,2.2168,2.2145,2.218,2.2171,2.2212,2.2208,2.236,2.2375,2.2219,2.222,2.2222,0,2.2578,2.2594,2.2536,2.2532,2.2511,2.2506,2.2496,2.2431,2.2423,2.2383,2.2394,2.2379,2.2363,2.2351,2.2302,2.2284,2.2258,2.2313,2.2255,2.2271,2.2255,2.2254,2.2253,2.2325,2.2327,2.2329,2.233,0,2.2719,2.269,2.2678,2.2657,2.2646,2.2626,2.2602,2.2603,2.253,2.2525,2.2513,2.2501,2.2477,2.2461,2.2435,2.2408,2.2356,2.2349,2.2356,2.2372,2.239,2.2377,2.221,2.2345,2.2344,2.2342,2.2342,2.2341,2.2829,2.2838,2.2799,2.2787,2.2762,2.274,2.2742,2.2702,2.2691,2.2666,2.2628,2.2622,2.2584,2.2542,2.252,2.2513,2.2484,2.2496,2.2498,2.2501,2.2508,2.2394,2.2509,2.2508,2.2508,2.2507,2.2507,0,2.2964,2.2934,2.2924,2.2891,2.2882,2.2834,2.2804,2.2799,2.2794,2.2764,2.2749,2.2734,2.2719,2.2669,2.2648,2.2652,2.2627,2.2648,2.2645,2.264,2.2538,2.2532,2.2668,2.2668,2.2668,2.2668,2.2668,2.2668,2.3032,2.3044,2.3011,2.3009,2.2979,2.2972,2.2958,2.2937,2.2912,2.2899,2.2885,2.2853,2.2814,2.2789,2.2772,2.2758,2.2752,2.278,2.2758,2.2663,2.2647,2.2632,2.2626,2.278,2.278,2.2859,2.286,2.2861]},{"header":{"parameterUnit":"m.s-1","parameterCategory":1,"la1":30.2991,"la2":30.254,"lo1":-89.0895,"lo2":-89.0444,"dy":0.0017,"dx":0.0017,"nx":28,"ny":28,"refTime":"2025-06-17T03:00:00:Z","depth":0,"parameterNumber":3,"parameterNumberName":"V-component_of_WINDS"},"data":[0,0,0,0,0,0,0,0,0,0,0,0,0,0,0,0,0,0,0,0,0,0,0,0,0,0,0,0,0,0,0,0,0,0,0,0,0,0,0,0,0,0,0,0,0,0,0,0,0,0,0,0,0,0,0,0,0,0,5.9457,5.9458,0,5.956,5.9561,5.9562,5.9519,5.9516,5.9514,5.9512,5.9612,5.9617,5.9622,0,0,0,0,0,0,0,0,0,0,0,0,0,5.9215,5.922,5.9456,5.9458,5.9459,5.9559,5.9561,5.9562,5.9519,5.9516,5.9513,5.9511,5.961,5.9616,5.9622,0,0,0,0,0,0,0,0,0,0,0,0,0,5.9319,5.9222,5.9456,5.945,5.945,5.9559,5.9561,5.9563,5.952,5.9516,5.9513,5.9509,5.9608,5.9615,5.9623,5.9742,0,0,5.9645,5.9649,0,0,0,0,0,0,0,0,5.9314,5.9328,5.9449,5.945,5.9451,5.9523,5.9513,5.9623,5.9521,5.9493,5.9512,5.9507,5.9585,5.9594,5.9621,5.9747,5.9751,5.9646,5.9651,5.9654,5.9656,0,0,0,0,0,0,0,5.9306,5.9324,5.9497,5.9451,5.9452,5.944,5.945,5.9533,5.9558,5.9495,5.9493,5.9506,5.9584,5.9614,5.9623,5.9753,5.9646,5.9653,5.9657,5.966,5.9978,5.9982,0,0,0,0,0,0,5.93,5.9318,5.9494,5.95,5.9372,5.9447,5.9459,5.9503,5.9557,5.9562,5.9509,5.9503,5.9603,5.9615,5.9627,5.9768,5.9654,5.9661,5.9665,5.9975,5.9979,5.9984,0,0,0,0,0,0,5.9295,5.9316,5.949,5.9408,5.9429,5.9455,5.9505,5.9507,5.9537,5.9567,5.9571,5.9535,5.9601,5.9616,5.9714,5.9771,5.9664,5.9671,5.997,5.9976,5.9982,6.0053,0,0,0,0,0,0,5.9288,5.9315,5.9362,5.941,5.9434,5.9577,5.9509,5.9512,5.9551,5.9544,5.9593,5.9597,5.9599,5.9703,5.9721,5.9779,5.9677,5.9965,5.9973,5.998,6.0045,6.0061,6.0073,0,0,0,0,0,5.928,5.9377,5.9365,5.9386,5.9494,5.9581,5.9594,5.9596,5.9555,5.9602,5.9621,5.9596,5.9762,5.9713,5.9733,5.9794,5.9961,5.997,5.9979,6.0039,6.0058,6.0073,0,0,0,0,0,0,5.9334,5.9384,5.937,5.9486,5.953,5.9573,5.9632,5.9616,5.967,5.9662,5.966,5.9671,5.9771,5.9793,5.9737,5.9911,5.9855,5.9868,5.9894,5.9912,5.9925,5.9917,5.9683,0,0,0,0,0,5.936,5.9428,5.9467,5.9566,5.9588,5.9607,5.9644,5.9642,5.9686,5.9704,5.973,5.9772,5.9833,5.9874,5.9932,6.0049,6.0057,6.01,6.0114,6.0126,6.0137,6.0197,6.0216,6.0013,6.0013,6.0013,0,0,5.9413,5.9449,5.9492,5.9577,5.9611,5.9679,5.9622,5.9697,5.9747,5.9714,5.9808,5.9829,5.9875,5.9982,6.003,6.0003,6.0195,6.0137,6.0146,6.0151,6.0208,6.0228,6.0245,6.0019,6.0018,6.0017,0,0,5.9545,5.958,5.9665,5.97,5.9751,5.9763,5.9783,5.9829,5.9842,5.9936,5.9912,5.997,6.0077,6.0111,6.0142,6.0285,6.0262,6.0304,6.0376,6.0435,6.0451,6.0465,6.0513,6.0531,6.0315,6.0315,6.0315,0,5.9604,5.9708,5.971,5.9787,5.9824,5.9799,5.9884,5.9917,5.9984,6.0009,5.9978,6.011,6.014,6.0253,6.0287,6.0314,6.0335,6.0297,6.0449,6.0463,6.0476,6.0522,6.0541,6.032,6.0319,6.0319,6.0318,0,5.9777,5.9849,5.9911,5.9978,6.0023,6.0103,6.0115,6.0159,6.0152,6.0166,6.026,6.0295,6.0359,6.0386,6.038,6.0498,6.0479,6.0449,6.0391,6.05,6.0543,6.0561,6.0326,6.0324,6.0323,6.0322,0,0,5.9946,6.0013,6.0035,6.0064,6.0119,6.0173,6.0251,6.0315,6.0352,6.0399,6.0462,6.0552,6.0524,6.0559,6.0556,6.0608,6.0716,6.0571,6.0572,6.0595,6.0845,6.0866,6.0887,6.0702,6.0706,6.0709,6.084,0,6.008,6.0219,6.0222,6.0348,6.0412,6.0389,6.0456,6.0496,6.0511,6.0566,6.0581,6.0644,6.0604,6.0624,6.0675,6.0693,6.0766,6.0683,6.0758,6.0761,6.0746,6.091,6.0933,6.1055,6.0857,6.086,6.0862,0,6.0255,6.0309,6.0441,6.0485,6.0512,6.0573,6.063,6.0685,6.0728,6.0734,6.0773,6.0763,6.0839,6.0781,6.0885,6.0828,6.0859,6.0872,6.0877,6.0882,6.0817,6.0917,6.1094,6.1112,6.0889,6.0887,6.0885,0,6.0362,6.0467,6.0559,6.0585,6.0639,6.0681,6.0705,6.0745,6.0782,6.0832,6.0856,6.0914,6.0945,6.0989,6.0993,6.095,6.1096,6.1039,6.1102,6.1101,6.1132,6.113,6.1314,6.1156,6.1155,6.1155,6.1155,0,6.051,6.0591,6.0608,6.0664,6.0754,6.0756,6.0844,6.0864,6.0899,6.0957,6.094,6.0995,6.0998,6.1053,6.1056,6.114,6.1155,6.116,6.116,6.1161,6.116,6.118,6.117,6.116,6.1159,6.1158,6.1157,0,6.0644,6.0659,6.0757,6.08,6.0812,6.0876,6.0911,6.0964,6.0977,6.105,6.1067,6.1087,6.1151,6.116,6.1234,6.1237,6.1337,6.1328,6.1323,6.1321,6.1382,6.1375,6.1584,6.161,6.1437,6.1438,6.144,0,6.0737,6.0799,6.0848,6.0886,6.0913,6.0975,6.1013,6.1017,6.1057,6.111,6.1156,6.1218,6.1268,6.1371,6.139,6.1447,6.1438,6.1507,6.1446,6.1444,6.1436,6.1432,6.1436,6.1518,6.152,6.1522,6.1523,0,6.0899,6.0903,6.0959,6.1019,6.1065,6.1111,6.1155,6.1187,6.1196,6.1241,6.1307,6.1346,6.1422,6.1483,6.1539,6.156,6.1543,6.1543,6.156,6.156,6.1553,6.1555,6.1352,6.1537,6.1536,6.1535,6.1534,6.1534,6.1013,6.1066,6.1109,6.1172,6.1206,6.1246,6.1297,6.1317,6.1372,6.1435,6.1434,6.1505,6.1544,6.1617,6.1643,6.1697,6.1674,6.17,6.1706,6.1711,6.1716,6.1546,6.1708,6.1707,6.1707,6.1707,6.1706,0,6.1172,6.1199,6.1257,6.1318,6.1368,6.1349,6.1395,6.1437,6.1501,6.1539,6.1589,6.1663,6.1722,6.1746,6.1804,6.1842,6.1835,6.1857,6.1853,6.1858,6.1735,6.1713,6.1861,6.1861,6.1861,6.1861,6.1861,6.1861,6.1261,6.1349,6.1358,6.1461,6.1486,6.1557,6.1585,6.1622,6.1653,6.1737,6.1786,6.1802,6.1834,6.1893,6.1946,6.1951,6.1972,6.1996,6.1998,6.1882,6.1867,6.1852,6.1831,6.2002,6.2002,6.2116,6.2117,6.2118]}]]